Location: WHS+Essen
(51.3947°N, 6.9794°E)
Time: 18:19:22
(UTC+02:00)

ISS - Pass Details

Date: 24 March 2019
Orbit: 408 x 410 km, 51.6° (Epoch: 24 April)

Event Time Altitude Azimuth Distance (km) Brightness Sun altitude
Rises 19:26:44 0° 213° (SSW) 2,327 0.3 -6.3°
Reaches altitude 10° 19:29:06 10° 197° (SSW) 1,469 -0.9 -6.7°
Maximum altitude 19:31:42 22° 145° (SE) 958 -2.3 -7.1°
Drops below altitude 10° 19:34:16 10° 93° (E) 1,461 -1.7 -7.5°
Enters shadow 19:34:21 10° 92° (E) 1,489 -1.6 -7.5°
